Date,TemperatureHighF,TemperatureAvgF,TemperatureLowF,DewpointHighF,DewpointAvgF,DewpointLowF,HumidityHigh,HumidityAvg,HumidityLow,PressureMaxIn,PressureMinIn,WindSpeedMaxMPH,WindSpeedAvgMPH,GustSpeedMaxMPH,PrecipitationSumIn
2013-2-1,59.0,51.3,45.0,46.0,41.8,36.0,94,71,52,0.00,40.00,13,9,18,0.00
2013-2-2,58.0,52.1,47.0,49.0,45.6,42.0,100,79,68,0.00,40.00,11,5,15,0.00
2013-2-3,58.0,48.0,40.0,49.0,43.6,40.0,100,86,61,0.00,40.00,15,6,22,0.00
2013-2-4,66.0,53.9,44.0,54.0,45.5,34.0,97,74,51,0.00,40.00,9,4,12,0.00
2013-2-5,49.0,43.9,39.0,47.0,42.3,34.0,100,94,68,0.00,40.00,20,14,31,0.00
2013-2-6,63.0,45.9,39.0,45.0,40.0,37.0,100,82,52,0.00,40.00,14,8,20,0.00
2013-2-7,49.0,42.3,38.0,42.0,38.4,35.0,100,86,67,0.00,40.00,16,10,25,0.02
2013-2-8,54.0,41.3,35.0,44.0,34.4,19.0,100,80,37,0.00,40.00,15,8,24,0.01
2013-2-9,59.0,45.5,40.0,30.0,23.2,19.0,51,41,33,0.00,40.00,12,7,23,0.00
2013-2-10,59.0,47.7,40.0,39.0,29.3,17.0,59,49,32,0.00,40.00,10,7,17,0.00
2013-2-11,63.0,48.1,40.0,33.0,23.6,18.0,47,38,29,0.00,40.00,7,4,15,0.00
2013-2-12,58.0,49.9,46.0,39.0,29.5,22.0,63,45,35,0.00,40.00,10,6,15,0.00
2013-2-13,66.0,52.3,44.0,40.0,34.9,29.0,66,52,36,0.00,40.00,11,6,15,0.00
2013-2-14,63.0,55.1,49.0,43.0,36.8,32.0,63,51,38,0.00,40.00,13,8,21,0.00
2013-2-15,67.0,57.2,50.0,45.0,37.4,29.0,62,48,36,0.00,40.00,10,5,15,0.00
2013-2-16,64.0,56.8,50.0,47.0,40.5,32.0,75,55,41,0.00,40.00,13,8,15,0.00
2013-2-17,67.0,52.9,45.0,43.0,35.8,31.0,74,53,36,0.00,40.00,12,8,20,0.00
2013-2-18,51.0,44.9,39.0,43.0,35.9,25.0,95,73,40,0.00,40.00,22,14,36,0.00
2013-2-19,42.0,37.7,34.0,40.0,35.8,33.0,100,93,81,0.00,40.00,25,14,34,0.28
2013-2-20,55.0,42.4,32.0,36.0,31.8,26.0,100,69,43,0.00,40.00,17,13,23,0.01
2013-2-21,60.0,45.2,36.0,38.0,31.5,27.0,88,61,34,0.00,40.00,12,9,19,0.00
2013-2-22,62.0,50.8,45.0,39.0,31.6,25.0,75,48,36,0.00,40.00,23,9,31,0.00
2013-2-23,61.0,47.3,41.0,44.0,32.7,15.0,100,63,30,0.00,40.00,24,12,32,0.00
2013-2-24,64.0,48.1,40.0,30.0,18.4,14.0,40,31,24,0.00,40.00,14,7,26,0.00
2013-2-25,64.0,51.1,47.0,42.0,28.3,17.0,57,42,26,0.00,40.00,15,6,21,0.00
2013-2-26,69.0,52.6,43.0,34.0,24.1,17.0,62,35,18,0.00,40.00,12,8,18,0.00
2013-2-27,73.0,56.5,51.0,41.0,26.5,14.0,62,33,22,0.00,40.00,13,5,17,0.00
2013-2-28,67.0,55.2,49.0,50.0,45.2,37.0,83,70,53,0.00,40.00,12,10,20,0.00